EA1AML-1 Vega de Espinareda ES current weather conditions

sailwx.info

Wind from 186

Air temperature 16.7° C
Dewpoint 16.4° C

Last reported at 2014-Oct-30 17:42 UTC.
Time now 2014-Oct-30 19:04 UTC

Location: N 42°43' W 006°39'.
View on Google Maps.

See reports from other nearby stations

  
Tides and Currents Weather Stations Pressure Air Temp Water Temp Dewpoint Dewpoint Depression Visibility Wind Speed Wind Dir Waves Ship Positions
date/time (UTC)wind fromknots sea level pressurealtimeterstation pressurevisibilityair tempwater tempwave heightnotes
2014-Oct-30 17:42 186 16.7
2014-Oct-30 17:37 187 2 gusting 3 17.2
2014-Oct-30 17:32 194 0 gusting 2 17.2
2014-Oct-30 17:28 226 17.8
2014-Oct-30 17:25 217 18.3
2014-Oct-30 17:17 196 2 gusting 3 18.3
2014-Oct-30 17:12 193 18.9
2014-Oct-30 17:07 193 18.9
2014-Oct-30 17:02 194 18.9
2014-Oct-30 16:57 205 1 gusting 3 18.9
2014-Oct-30 16:52 194 2 gusting 4 19.4
2014-Oct-30 16:42 190 0 gusting 2 20.6
2014-Oct-30 16:32 187 20.0
2014-Oct-30 16:27 189 3 gusting 5 20.0
2014-Oct-30 16:23 186 2 gusting 5 20.0
2014-Oct-30 16:17 183 3 gusting 5 20.0
2014-Oct-30 16:12 181 2 gusting 5 20.6
2014-Oct-30 16:02 191 2 gusting 5 21.1
2014-Oct-30 15:57 181 3 gusting 5 21.7
2014-Oct-30 15:53 199 0 gusting 2 22.8
2014-Oct-30 15:48 317 23.9
2014-Oct-30 15:42 306 23.9
2014-Oct-30 15:38 307 24.4
2014-Oct-30 15:32 234 24.4
2014-Oct-30 15:27 215 23.9
2014-Oct-30 15:22 347 23.9
2014-Oct-30 15:17 001 24.4
2014-Oct-30 15:12 001 24.4
2014-Oct-30 15:07 350 24.4
2014-Oct-30 15:02 339 24.4
2014-Oct-30 14:58 135 5.6
2014-Oct-30 14:56 135 5.6
2014-Oct-30 05:11 135 5.6
2014-Oct-30 05:05 5.6
2014-Oct-30 05:00 181 5.6
2014-Oct-30 04:55 183 5.6
2014-Oct-30 04:50 184 5.6
2014-Oct-30 04:45 184 7.2
2014-Oct-30 02:35 186 0 gusting 2 7.2
2014-Oct-30 02:29 192 0 gusting 1 7.2
2014-Oct-30 02:24 176 6.7
2014-Oct-30 02:19 150 6.7
2014-Oct-30 02:14 166 6.7
2014-Oct-30 02:09 135 7.2
2014-Oct-30 02:04 168 8.3
2014-Oct-30 00:19 158 8.3
2014-Oct-30 00:08 8.3
2014-Oct-30 00:04 045 8.3
2014-Oct-29 23:58 045 8.3
2014-Oct-29 23:41 183 8.9
2014-Oct-29 23:36 174 8.9
2014-Oct-29 23:31 152 8.9
2014-Oct-29 23:27 8.9
2014-Oct-29 23:21 181 8.9
2014-Oct-29 23:16 176 8.9
2014-Oct-29 23:15 177 8.9
2014-Oct-29 19:09 211 13.9
2014-Oct-29 19:04 14.4
2014-Oct-29 19:00 186 14.4
2014-Oct-29 18:55 194 14.4
2014-Oct-29 18:49 196 1 gusting 3 14.4
2014-Oct-29 18:45 204 2 gusting 3 15.0
2014-Oct-29 18:39 216 15.0
2014-Oct-29 18:34 197 0 gusting 2 15.0
2014-Oct-29 18:30 179 1 gusting 2 15.6
2014-Oct-29 18:24 186 1 gusting 4 15.6
2014-Oct-29 18:20 185 0 gusting 4 16.1
2014-Oct-29 18:15 186 2 gusting 4 16.1
2014-Oct-29 18:09 196 2 gusting 4 16.1
2014-Oct-29 18:04 198 2 gusting 4 16.7
2014-Oct-29 17:59 188 2 gusting 4 16.7
2014-Oct-29 17:56 181 2 gusting 4 16.7
2014-Oct-29 17:49 189 0 gusting 4 17.2
2014-Oct-29 17:44 191 2 gusting 4 17.2
2014-Oct-29 17:39 193 1 gusting 3 17.8
2014-Oct-29 17:34 192 2 gusting 4 17.8
2014-Oct-29 17:29 184 2 gusting 4 18.3
2014-Oct-29 17:24 188 3 gusting 4 18.3
2014-Oct-29 17:19 203 2 gusting 4 18.9
2014-Oct-29 17:14 211 1 gusting 4 19.4
2014-Oct-29 17:09 193 1 gusting 4 20.0
2014-Oct-29 17:04 183 20.0
2014-Oct-29 16:59 205 0 gusting 3 20.0
2014-Oct-29 16:55 207 20.0
2014-Oct-29 16:49 196 1 gusting 5 20.0
2014-Oct-29 16:40 200 2 gusting 4 21.1
2014-Oct-29 16:35 188 21.1
2014-Oct-29 16:29 207 21.1
2014-Oct-29 16:24 212 0 gusting 2 21.1
2014-Oct-29 16:19 211 0 gusting 2 21.7
2014-Oct-29 16:14 236 21.7
2014-Oct-29 16:10 259 0 gusting 1 22.2
2014-Oct-29 16:04 271 22.2
2014-Oct-29 15:59 286 22.2
2014-Oct-29 15:55 309 22.2
2014-Oct-29 15:50 326 22.2
2014-Oct-29 15:44 337 22.2
2014-Oct-29 15:40 337 22.8
2014-Oct-29 15:34 349 0 gusting 2 22.8
2014-Oct-29 15:30 348 0 gusting 2 23.3
2014-Oct-29 15:25 351 0 gusting 2 24.4
2014-Oct-29 15:19 135 0 gusting 1 25.0
2014-Oct-29 15:15 210 25.0
2014-Oct-29 15:10 238 25.0
2014-Oct-29 15:04 189 24.4
2014-Oct-29 14:59 189 24.4
2014-Oct-29 14:49 199 24.4
2014-Oct-29 14:44 208 23.9
2014-Oct-29 14:39 179 23.9
2014-Oct-29 14:36 159 23.3
2014-Oct-28 20:05 045 13.9
2014-Oct-28 20:00 045 13.9
2014-Oct-28 19:53 212 13.9
2014-Oct-28 19:48 204 13.9
2014-Oct-28 19:35 031 14.4
2014-Oct-28 19:29 14.4
2014-Oct-28 19:23 14.4
2014-Oct-28 19:17 15.0
2014-Oct-28 19:11 337 15.0
2014-Oct-28 19:06 303 15.6
2014-Oct-28 19:00 170 15.6